Location: Unspecified
(10.5000°N, 0.0000°E)
Time: 17:48:43
(UTC+00:00)

Envisat - Pass Details

Date: 16 June 2019
Orbit: 764 x 766 km, 98.1° (Epoch: 19 October)

Event Time Altitude Azimuth Distance (km) Brightness Sun altitude
Rises 18:36:13 0° 164° (SSE) 3,222 5.8 -3.8°
Reaches altitude 10° 18:38:31 10° 162° (SSE) 2,296 5.1 -4.4°
Maximum altitude 18:43:34 74° 78° (ENE) 796 3.0 -5.5°
Drops below altitude 10° 18:48:36 10° 353° (N) 2,294 5.9 -6.6°
Sets 18:50:54 0° 352° (N) 3,219 6.7 -7.1°
